Location: Altleiningen
(49.5078°N, 8.0741°E)
Time: 10:25:48
(UTC+00:00)

CZ-4B R/B - Pass Details

Date: 03 March 2021
Orbit: 388 x 455 km, 97.6° (Epoch: 13 April)

Event Time Altitude Azimuth Distance (km) Brightness Sun altitude
Rises 18:39:30 0° 0° (N) 2,295 5.1 -14.7°
Reaches altitude 10° 18:41:48 10° 343° (NNW) 1,435 4.3 -15.0°
Maximum altitude 18:44:06 20° 294° (WNW) 992 4.1 -15.4°
Drops below altitude 10° 18:46:23 10° 245° (WSW) 1,437 4.8 -15.8°
Sets 18:48:41 0° 227° (SW) 2,298 5.6 -16.1°
